STARLINK-11627, 63107

Orbit data source: Space-Track

STARLINK-11627, 63107 is a payload satellite owned by SpaceX/Seattle (US) in LEO that was launched on Thu, 27 Feb 2025 UTC via an FALCON 9 launch vehicle from the Air Force Eastern Test Range (AFETR). Payload-class satellites include a variety of spacecraft equipped with specific instruments for various scientific and technological missions. These include communications satellites like Starlink; space stations such as the ISS; scientific satellites like the Hubble; Earth observation satellites from companies like Planet Labs, Umbra, and HawkEye 360; GPS; miniature CubeSats for education and research; and military/defense satellites.

Loading next visibility...
Identifier
63107, 2025-039D
Orbit
LEO
Country
Flag of USUS
Related business
Manufacturer
SpaceX/Seattle
Mission
Operational Commercial Communications
Bus & Motor
STARLINK V2MD, Unknown motor
Mass
960 kg wet, ~910 kg dry
Launch date (UTC)
2025-02-27 (1 year ago)
Launch vehicle
FALCON 9
Launch site
Air Force Eastern Test Range (AFETR)
Object type
Payload
Rocket body
Debris
Shape & HBR
Box + 2 Pan, 18.1 m
Radar Cross Section
36.964 m², Large (>1 m²)

Expand to show TLE details & history
Last TLE update: 1 day ago

TLE from 1 day ago
0 STARLINK-11627
1 63107U 25039D   26150.31297330  .00221818  00000-0  16826-2 0  9995
2 63107  42.9997 104.7621 0001087 269.7332  90.3411 15.70895081 72458
Epoch: 2026-05-30T07:30Z
TLE epoch observation values (Epoch: 2026-05-30T07:30:40.893Z)
Latitude
-0.00001°
Longitude
104.26091°
Altitude
356.113 km
Speed
7.697 km/s
True Right ascension
06h 59m 02s
True Declination
0° 00' 00"
Sunlit
Object was in daylight at epoch
Visualization orbit readout
Latitude
Unknown
Longitude
Unknown
Altitude
Unknown
Speed
Unknown
Apparent Right ascension
Unknown
Apparent Declination
Unknown
Sunlit
N/A
Visualization observer readout
Local Sidereal Time
17:29:44
Azimuth
Unknown
Elevation
Unknown
Doppler factor
Unknown
Orbital elements
Apogee altitude
359.052 km
Perigee altitude
357.587 km
Semi-major axis
6,736.456 km
Eccentricity
0.00011
Inclination
42.9997°
RAAN
104.7621°
Arg. of periapsis
269.7332°
True anomaly
90.35356°
Mean anomaly
90.3411°
Eccentric anomaly
90.34733°
Mean motion
3.92551 °/min
Orbital period
91.71 mins
BSTAR
0.0016826
Loading maneuver chart data...
Computing Atmospheric mass density...
Loading historical data...
Loading historical data...
Loading historical data...
Loading historical data...
Loading historical data...
Loading historical data...
Loading historical data...

Documentation

Showing up to 5 results
|